DELTA 1 DEB, 21296

Orbit data source: Space-Track

DELTA 1 DEB, 21296 is space debris in SSO originally from a launch on Thu, 12 Jun 1975 UTC launched from the Air Force Western Test Range (AFWTR). Debris objects in space refer to the collection of defunct objects orbiting the Earth. Examples of debris include non-operational satellites, rocket bodies, and fragments generated from explosions, collisions, or faulty payload assembly.

Loading next visibility...
Identifier
21296, 1975-052AH
Orbit
SSO
Country
Flag of USUS
Related business
Manufacturer
Unknown
Mission
Spacecraft
Bus & Motor
Unknown
Mass
Unknown
Launch date (UTC)
1975-06-12 (51 years ago)
Launch vehicle
Unknown
Launch site
Air Force Western Test Range (AFWTR)
Object type
Payload
Rocket body
Debris
Shape & HBR
Unknown shape, 0.1 m
Radar Cross Section
Medium (>0.1 m² and <1 m²)

Expand to show TLE details & history
Last TLE update: 2 days ago

TLE from 2 days ago
0 DELTA 1 DEB
1 21296U 75052AH  26171.45243713  .00000025  00000-0  16034-3 0  9999
2 21296  99.5736 348.5570 0234736 258.0327 158.6021 13.10713524676723
Epoch: 2026-06-20T10:51Z
TLE epoch observation values (Epoch: 2026-06-20T10:51:30.568Z)
Latitude
56.44648°
Longitude
-97.64552°
Altitude
1,396.364 km
Speed
7.088 km/s
True Right ascension
22h 15m 35s
True Declination
56° 18' 03"
Sunlit
Object was in daylight at epoch
Visualization orbit readout
Latitude
Unknown
Longitude
Unknown
Altitude
Unknown
Speed
Unknown
Apparent Right ascension
Unknown
Apparent Declination
Unknown
Sunlit
N/A
Visualization observer readout
Local Sidereal Time
15:46:26
Azimuth
Unknown
Elevation
Unknown
Doppler factor
Unknown
Orbital elements
Apogee altitude
1,396.048 km
Perigee altitude
1,039.443 km
Semi-major axis
7,595.883 km
Eccentricity
0.02347
Inclination
99.5736°
RAAN
348.557°
Arg. of periapsis
258.0327°
True anomaly
159.55731°
Mean anomaly
158.6021°
Eccentric anomaly
159.08228°
Mean motion
3.2785 °/min
Orbital period
109.81 mins
BSTAR
0.00016034
Loading maneuver chart data...
Computing Atmospheric mass density...

Documentation

Showing up to 5 results
|